Regional Weather Roundup
Issued by NWS Goodland, KS

Home | Current Version | Previous Version | Graphics & Text | Print | Product List | Glossary On
Versions: 1 2 3 4 5 6 7 8 9 10 11 12 13 14 15 16 17 18 19 20 21 22 23 24 25 26 27 28 29 30 31 32 33 34 35 36 37 38 39 40 41 42 43 44 45 46 47 48 49 50
000
ASUS43 KGLD 040159
RWRGLD

GOODLAND FORECAST AREA HOURLY WEATHER ROUNDUP
NATIONAL WEATHER SERVICE GOODLAND KS
800 PM MDT MON AUG 03 2015

...OFFICIAL OBSERVATIONS...

CITY           SKY/WX    TMP DP  RH WIND       PRES   REMARKS
GOODLAND KS    CLOUDY    72  58  61 SE7       29.98F
HILL CITY KS   CLOUDY    84  67  56 SE6       29.91S
IMPERIAL NEB   CLOUDY    80  68  66 E8        29.96R
MCCOOK NEB     CLOUDY    80  70  71 E7        29.92S
AKRON CO       MOCLDY    70  51  51 S16G26    30.06R
BURLINGTON CO  CLOUDY    70  54  56 E8        30.02F
LIMON CO       MOCLDY    62  53  72 SE7       30.11F
$$

...UNOFFICIAL OBSERVATIONS...

CITY           SKY/WX    TMP DP  RH WIND       PRES   REMARKS
COLBY KS       CLEAR     81  68  65 SE6       29.98R
NORTON KS      CLEAR     81  55  41 SE3       29.92R
SHARON SPRINGS   N/A     74  61  64 NW8         N/A
KIT CARSON CO    N/A     68  56  64 MISG        N/A
YUMA CO          N/A     72  54  52 S10G17      N/A
$$



USA.gov is the U.S. government's official web portal to all federal, state and local government web resources and services.